WTB08M TNCM-MDSD

Flight info

Callsign WTB08M
Flight time 1h 9m
Altitude 34000
Route MODOR2 GOUDA L577 ANTEX/N0415F180 L577 GOSUB GOSUB2G
Aircraft R722/M-SDFGRWY/S

Departure

Time 2026-05-04 18:27
Airport Princess Juliana International Airport (TNCM)

Arrival

Time 2026-05-04 19:36
Airport Las Américas International Airport (MDSD)
Time Latitude Longitude Altitude Speed Heading
2026-05-04 18:00 18.04087 -63.11871 24 ft 0 kts 192°
2026-05-04 18:21 18.04074 -63.11874 47 ft 3 kts 199°
2026-05-04 18:21 18.04052 -63.11883 27 ft 3 kts 210°
2026-05-04 18:22 18.04043 -63.11891 25 ft 0 kts 224°
2026-05-04 18:23 18.04042 -63.11893 25 ft 3 kts 224°
2026-05-04 18:24 18.04018 -63.11919 25 ft 6 kts 229°
2026-05-04 18:24 18.03988 -63.11955 25 ft 7 kts 223°
2026-05-04 18:24 18.03946 -63.11961 25 ft 6 kts 129°
2026-05-04 18:24 18.03943 -63.11939 27 ft 0 kts 83°
2026-05-04 18:26 18.03956 -63.11832 27 ft 48 kts 81°
2026-05-04 18:26 18.04047 -63.11215 27 ft 120 kts 81°
2026-05-04 18:27 18.04199 -63.10180 173 ft 156 kts 82°
2026-05-04 18:27 18.04123 -63.09052 717 ft 163 kts 116°
2026-05-04 18:27 18.03261 -63.08288 1228 ft 174 kts 165°
2026-05-04 18:27 18.02079 -63.08639 1877 ft 191 kts 210°
2026-05-04 18:28 18.00861 -63.09111 2364 ft 194 kts 178°
2026-05-04 18:28 17.99458 -63.08945 2570 ft 217 kts 162°
2026-05-04 18:28 17.97885 -63.08566 3149 ft 234 kts 165°
2026-05-04 18:28 17.96335 -63.08227 4404 ft 230 kts 165°
2026-05-04 18:29 17.94713 -63.07875 5349 ft 239 kts 165°
2026-05-04 18:29 17.93029 -63.07797 6279 ft 249 kts 189°
2026-05-04 18:29 17.91356 -63.08441 6775 ft 280 kts 211°
2026-05-04 18:29 17.89996 -63.09951 7614 ft 288 kts 236°
2026-05-04 18:30 17.89311 -63.14108 9450 ft 301 kts 273°
2026-05-04 18:30 17.89568 -63.16294 10347 ft 305 kts 277°
2026-05-04 18:30 17.89845 -63.18599 10548 ft 329 kts 274°
2026-05-04 18:31 17.90007 -63.20997 11378 ft 328 kts 272°
2026-05-04 18:31 17.90153 -63.23397 12147 ft 331 kts 273°
2026-05-04 18:31 17.90346 -63.25828 12829 ft 337 kts 274°
2026-05-04 18:31 17.90548 -63.28301 13522 ft 342 kts 273°
2026-05-04 18:32 17.90733 -63.30802 14230 ft 345 kts 273°
2026-05-04 18:32 17.90916 -63.33321 14905 ft 348 kts 274°
2026-05-04 18:32 17.91109 -63.35852 15715 ft 341 kts 274°
2026-05-04 18:32 17.91296 -63.38299 16654 ft 340 kts 275°
2026-05-04 18:33 17.91483 -63.40797 17126 ft 345 kts 275°
2026-05-04 18:33 17.91668 -63.43297 17628 ft 349 kts 275°
2026-05-04 18:33 17.91860 -63.45868 18343 ft 347 kts 275°
2026-05-04 18:33 17.92046 -63.48359 18890 ft 349 kts 275°
2026-05-04 18:34 17.92240 -63.50956 19328 ft 353 kts 275°
2026-05-04 18:34 17.92430 -63.53523 19870 ft 355 kts 275°
2026-05-04 18:34 17.92622 -63.56114 20135 ft 366 kts 275°
2026-05-04 18:34 17.92821 -63.58787 20674 ft 367 kts 275°
2026-05-04 18:35 17.93020 -63.61485 21065 ft 375 kts 275°
2026-05-04 18:35 17.93223 -63.64233 21521 ft 379 kts 275°
2026-05-04 18:35 17.93451 -63.67008 21980 ft 384 kts 277°
2026-05-04 18:35 17.93876 -63.69794 22402 ft 389 kts 283°
2026-05-04 18:36 17.94512 -63.72576 22828 ft 395 kts 284°
2026-05-04 18:36 17.95111 -63.75411 23310 ft 399 kts 281°
2026-05-04 18:36 17.95597 -63.78285 23772 ft 403 kts 280°
2026-05-04 18:36 17.96107 -63.81198 24185 ft 406 kts 282°
2026-05-04 18:37 17.96679 -63.84092 24819 ft 403 kts 282°
2026-05-04 18:37 17.97245 -63.87001 25236 ft 408 kts 282°
2026-05-04 18:37 17.97781 -63.89929 25721 ft 410 kts 282°
2026-05-04 18:37 17.98318 -63.92870 26255 ft 410 kts 282°
2026-05-04 18:38 17.98877 -63.95816 26741 ft 412 kts 283°
2026-05-04 18:38 17.99439 -63.98776 27242 ft 413 kts 282°
2026-05-04 18:38 17.99991 -64.01749 27722 ft 415 kts 283°
2026-05-04 18:38 18.00535 -64.04691 28208 ft 417 kts 282°
2026-05-04 18:39 18.01103 -64.07725 28642 ft 419 kts 282°
2026-05-04 18:39 18.01666 -64.10738 29079 ft 420 kts 283°
2026-05-04 18:39 18.02220 -64.13710 29489 ft 421 kts 282°
2026-05-04 18:39 18.02784 -64.16745 29843 ft 424 kts 283°
2026-05-04 18:40 18.03348 -64.19791 30257 ft 424 kts 282°
2026-05-04 18:40 18.03917 -64.22847 30506 ft 428 kts 282°
2026-05-04 18:40 18.04489 -64.25924 30836 ft 429 kts 282°
2026-05-04 18:40 18.05059 -64.29002 31135 ft 431 kts 282°
2026-05-04 18:41 18.05631 -64.32094 31425 ft 433 kts 282°
2026-05-04 18:41 18.06012 -64.34156 31639 ft 433 kts 282°
2026-05-04 18:41 18.06589 -64.37270 31950 ft 435 kts 282°
2026-05-04 18:41 18.07165 -64.40388 32262 ft 436 kts 282°
2026-05-04 18:42 18.07743 -64.43521 32589 ft 437 kts 282°
2026-05-04 18:42 18.08324 -64.46675 32797 ft 441 kts 282°
2026-05-04 18:42 18.08908 -64.49840 33115 ft 441 kts 282°
2026-05-04 18:42 18.09491 -64.53012 33336 ft 445 kts 281°
2026-05-04 18:43 18.10079 -64.56209 33644 ft 445 kts 281°
2026-05-04 18:43 18.10666 -64.59405 33921 ft 447 kts 281°
2026-05-04 18:43 18.11258 -64.62630 34045 ft 452 kts 281°
2026-05-04 18:44 18.12468 -64.69233 34046 ft 467 kts 281°
2026-05-04 18:44 18.13713 -64.76041 34050 ft 481 kts 281°
2026-05-04 18:45 18.14992 -64.83049 34043 ft 495 kts 281°
2026-05-04 18:45 18.16304 -64.90254 34051 ft 508 kts 281°
2026-05-04 18:46 18.17635 -64.97628 34046 ft 516 kts 280°
2026-05-04 18:46 18.18158 -65.01224 34035 ft 480 kts 277°
2026-05-04 18:46 18.18443 -65.04670 34029 ft 467 kts 275°
2026-05-04 18:47 18.19125 -65.11486 34040 ft 472 kts 278°
2026-05-04 18:47 18.19902 -65.18311 34043 ft 473 kts 276°
2026-05-04 18:48 18.20607 -65.25230 34047 ft 473 kts 277°
2026-05-04 18:48 18.21358 -65.32065 34051 ft 475 kts 276°
2026-05-04 18:49 18.22074 -65.38950 34056 ft 473 kts 277°
2026-05-04 18:49 18.22810 -65.45831 34056 ft 474 kts 276°
2026-05-04 18:50 18.23538 -65.52775 34058 ft 474 kts 276°
2026-05-04 18:50 18.24262 -65.59655 34061 ft 474 kts 276°
2026-05-04 18:51 18.24979 -65.66504 34058 ft 471 kts 276°
2026-05-04 18:51 18.25690 -65.73323 34058 ft 468 kts 276°
2026-05-04 18:52 18.26389 -65.80040 34047 ft 450 kts 276°
2026-05-04 18:52 18.27073 -65.86656 34066 ft 452 kts 276°
2026-05-04 18:53 18.27751 -65.93222 34046 ft 452 kts 276°
2026-05-04 18:53 18.28433 -65.99844 34031 ft 457 kts 276°
2026-05-04 18:54 18.29115 -66.06500 34043 ft 456 kts 276°
2026-05-04 18:54 18.29788 -66.13086 34030 ft 456 kts 276°
2026-05-04 18:55 18.30465 -66.19732 34029 ft 457 kts 276°
2026-05-04 18:55 18.31472 -66.29665 34027 ft 456 kts 275°
2026-05-04 18:56 18.32145 -66.36321 34035 ft 461 kts 275°
2026-05-04 18:56 18.32814 -66.42986 34039 ft 454 kts 275°
2026-05-04 18:57 18.33479 -66.49616 34033 ft 456 kts 275°
2026-05-04 18:57 18.34146 -66.56285 34048 ft 456 kts 275°
2026-05-04 18:58 18.34803 -66.62905 34031 ft 457 kts 275°
2026-05-04 18:58 18.35468 -66.69585 34030 ft 460 kts 275°
2026-05-04 18:59 18.36127 -66.76272 34032 ft 459 kts 275°
2026-05-04 18:59 18.36785 -66.82946 34026 ft 459 kts 275°
2026-05-04 19:00 18.37442 -66.89636 34036 ft 459 kts 275°
2026-05-04 19:00 18.38094 -66.96311 34033 ft 458 kts 275°
2026-05-04 19:01 18.38743 -67.02985 34039 ft 459 kts 275°
2026-05-04 19:01 18.39393 -67.09671 34038 ft 458 kts 275°
2026-05-04 19:02 18.40037 -67.16338 34035 ft 458 kts 275°
2026-05-04 19:02 18.40683 -67.23033 34047 ft 459 kts 275°
2026-05-04 19:03 18.41320 -67.29678 33877 ft 460 kts 275°
2026-05-04 19:03 18.41642 -67.33042 33179 ft 447 kts 275°
2026-05-04 19:03 18.41943 -67.36144 33996 ft 426 kts 274°
2026-05-04 19:04 18.42239 -67.39287 34013 ft 438 kts 274°
2026-05-04 19:04 18.42542 -67.42524 34032 ft 449 kts 274°
2026-05-04 19:04 18.43173 -67.49104 34011 ft 452 kts 274°
2026-05-04 19:05 18.43792 -67.55677 33987 ft 452 kts 275°
2026-05-04 19:05 18.44103 -67.58973 33459 ft 450 kts 275°
2026-05-04 19:05 18.44410 -67.62231 32880 ft 444 kts 275°
2026-05-04 19:06 18.44712 -67.65436 32298 ft 437 kts 275°
2026-05-04 19:06 18.45008 -67.68604 31727 ft 432 kts 275°
2026-05-04 19:06 18.45302 -67.71742 31162 ft 428 kts 276°
2026-05-04 19:06 18.45593 -67.74845 30607 ft 424 kts 276°
2026-05-04 19:07 18.45879 -67.77926 30039 ft 420 kts 276°
2026-05-04 19:07 18.46164 -67.80976 29448 ft 416 kts 276°
2026-05-04 19:07 18.46446 -67.84000 28899 ft 413 kts 276°
2026-05-04 19:07 18.46720 -67.86965 28364 ft 411 kts 276°
2026-05-04 19:08 18.46998 -67.89956 27823 ft 409 kts 276°
2026-05-04 19:08 18.47272 -67.92931 27283 ft 407 kts 275°
2026-05-04 19:08 18.47542 -67.95848 26764 ft 392 kts 275°
2026-05-04 19:08 18.47801 -67.98650 26255 ft 380 kts 275°
2026-05-04 19:09 18.47973 -68.01384 25927 ft 371 kts 270°
2026-05-04 19:09 18.47912 -68.04081 25708 ft 368 kts 266°
2026-05-04 19:09 18.47753 -68.06773 25503 ft 368 kts 266°
2026-05-04 19:09 18.47690 -68.09480 25296 ft 371 kts 269°
2026-05-04 19:10 18.47684 -68.12185 25097 ft 368 kts 268°
2026-05-04 19:10 18.47634 -68.14876 24893 ft 367 kts 266°
2026-05-04 19:10 18.47551 -68.17562 24683 ft 368 kts 267°
2026-05-04 19:10 18.47487 -68.20259 24482 ft 367 kts 267°
2026-05-04 19:11 18.47442 -68.22937 24280 ft 365 kts 268°
2026-05-04 19:11 18.47389 -68.25609 24075 ft 364 kts 267°
2026-05-04 19:11 18.47324 -68.28263 23870 ft 364 kts 266°
2026-05-04 19:11 18.47262 -68.30919 23670 ft 361 kts 266°
2026-05-04 19:12 18.47206 -68.33557 23438 ft 362 kts 266°
2026-05-04 19:12 18.47088 -68.38845 23034 ft 359 kts 267°
2026-05-04 19:12 18.47031 -68.41424 22841 ft 344 kts 267°
2026-05-04 19:13 18.46976 -68.43922 22654 ft 337 kts 266°
2026-05-04 19:13 18.46918 -68.46355 22468 ft 336 kts 266°
2026-05-04 19:13 18.46859 -68.48841 22289 ft 337 kts 267°
2026-05-04 19:13 18.46803 -68.51289 22112 ft 334 kts 267°
2026-05-04 19:14 18.46747 -68.53744 21923 ft 335 kts 267°
2026-05-04 19:14 18.46693 -68.56100 21744 ft 315 kts 267°
2026-05-04 19:14 18.46640 -68.58354 21555 ft 303 kts 267°
2026-05-04 19:14 18.46587 -68.60542 21402 ft 297 kts 267°
2026-05-04 19:15 18.46534 -68.62718 21251 ft 298 kts 267°
2026-05-04 19:15 18.46483 -68.64904 21099 ft 300 kts 267°
2026-05-04 19:15 18.46431 -68.67084 20938 ft 298 kts 268°
2026-05-04 19:15 18.46379 -68.69265 20780 ft 296 kts 268°
2026-05-04 19:16 18.46325 -68.71437 20608 ft 296 kts 268°
2026-05-04 19:16 18.46273 -68.73585 20456 ft 294 kts 268°
2026-05-04 19:16 18.46221 -68.75736 20297 ft 293 kts 268°
2026-05-04 19:16 18.46169 -68.77870 20139 ft 290 kts 268°
2026-05-04 19:17 18.46113 -68.80002 19867 ft 292 kts 268°
2026-05-04 19:17 18.46038 -68.82135 19504 ft 289 kts 267°
2026-05-04 19:17 18.45960 -68.84242 19137 ft 288 kts 268°
2026-05-04 19:17 18.45887 -68.86343 18765 ft 286 kts 268°
2026-05-04 19:18 18.45816 -68.88428 18388 ft 284 kts 268°
2026-05-04 19:18 18.45744 -68.90491 17988 ft 281 kts 268°
2026-05-04 19:18 18.45673 -68.92547 17608 ft 280 kts 268°
2026-05-04 19:18 18.45600 -68.94592 17245 ft 279 kts 268°
2026-05-04 19:19 18.45529 -68.96633 16879 ft 279 kts 268°
2026-05-04 19:19 18.45457 -68.98672 16511 ft 277 kts 268°
2026-05-04 19:19 18.45383 -69.00704 16145 ft 277 kts 268°
2026-05-04 19:19 18.45314 -69.02706 15789 ft 278 kts 268°
2026-05-04 19:20 18.45241 -69.04754 15427 ft 275 kts 268°
2026-05-04 19:20 18.45171 -69.06703 15086 ft 265 kts 267°
2026-05-04 19:20 18.45102 -69.08620 14746 ft 259 kts 267°
2026-05-04 19:20 18.45034 -69.10509 14413 ft 257 kts 267°
2026-05-04 19:21 18.44966 -69.12395 14072 ft 259 kts 267°
2026-05-04 19:21 18.44897 -69.14296 13691 ft 261 kts 267°
2026-05-04 19:21 18.44830 -69.16199 13317 ft 259 kts 266°
2026-05-04 19:21 18.44760 -69.18100 12962 ft 260 kts 266°
2026-05-04 19:22 18.44690 -69.20001 12615 ft 259 kts 266°
2026-05-04 19:22 18.44622 -69.21895 12272 ft 258 kts 266°
2026-05-04 19:22 18.44552 -69.23786 11933 ft 258 kts 266°
2026-05-04 19:22 18.44482 -69.25678 11592 ft 258 kts 266°
2026-05-04 19:23 18.44430 -69.27566 11254 ft 259 kts 266°
2026-05-04 19:23 18.44404 -69.29467 10906 ft 259 kts 266°
2026-05-04 19:23 18.44377 -69.31364 10565 ft 259 kts 267°
2026-05-04 19:23 18.44347 -69.33254 10228 ft 258 kts 266°
2026-05-04 19:24 18.44309 -69.35203 9871 ft 268 kts 266°
2026-05-04 19:24 18.44277 -69.37174 9484 ft 268 kts 267°
2026-05-04 19:24 18.44245 -69.39131 9134 ft 266 kts 266°
2026-05-04 19:24 18.44212 -69.41059 8784 ft 267 kts 267°
2026-05-04 19:25 18.44455 -69.42979 8426 ft 262 kts 288°
2026-05-04 19:25 18.45280 -69.44663 8091 ft 259 kts 307°
2026-05-04 19:25 18.46523 -69.46013 7768 ft 257 kts 320°
2026-05-04 19:25 18.47927 -69.47181 7438 ft 256 kts 324°
2026-05-04 19:26 18.49348 -69.48316 7098 ft 257 kts 323°
2026-05-04 19:26 18.50733 -69.49485 6765 ft 255 kts 322°
2026-05-04 19:26 18.52112 -69.50661 6433 ft 255 kts 323°
2026-05-04 19:26 18.53495 -69.51825 6074 ft 253 kts 323°
2026-05-04 19:27 18.54861 -69.52977 5743 ft 251 kts 322°
2026-05-04 19:27 18.55769 -69.53740 5512 ft 251 kts 322°
2026-05-04 19:27 18.57127 -69.54888 5194 ft 250 kts 322°
2026-05-04 19:27 18.58495 -69.56042 4851 ft 251 kts 322°
2026-05-04 19:28 18.59852 -69.57188 4511 ft 250 kts 322°
2026-05-04 19:28 18.61209 -69.58331 4186 ft 248 kts 321°
2026-05-04 19:28 18.62554 -69.59467 3860 ft 247 kts 321°
2026-05-04 19:28 18.63867 -69.60628 3520 ft 246 kts 313°
2026-05-04 19:29 18.64751 -69.62082 3218 ft 221 kts 289°
2026-05-04 19:29 18.65099 -69.63541 3060 ft 197 kts 270°
2026-05-04 19:29 18.65040 -69.64971 3014 ft 194 kts 254°
2026-05-04 19:29 18.64599 -69.66297 2990 ft 190 kts 238°
2026-05-04 19:30 18.63900 -69.67474 3004 ft 191 kts 230°
2026-05-04 19:30 18.63179 -69.68656 3008 ft 192 kts 237°
2026-05-04 19:30 18.62530 -69.69859 3011 ft 178 kts 235°
2026-05-04 19:30 18.61950 -69.70956 2975 ft 169 kts 236°
2026-05-04 19:31 18.61365 -69.72041 2981 ft 171 kts 235°
2026-05-04 19:31 18.60793 -69.73136 2943 ft 169 kts 235°
2026-05-04 19:31 18.60212 -69.74217 2842 ft 171 kts 236°
2026-05-04 19:31 18.59458 -69.75135 2419 ft 167 kts 202°
2026-05-04 19:32 18.58345 -69.75334 2214 ft 157 kts 178°
2026-05-04 19:32 18.57302 -69.75046 2124 ft 157 kts 152°
2026-05-04 19:32 18.56475 -69.74300 2064 ft 158 kts 130°
2026-05-04 19:32 18.55807 -69.73394 2056 ft 157 kts 132°
2026-05-04 19:33 18.55096 -69.72525 2046 ft 156 kts 133°
2026-05-04 19:33 18.54400 -69.71653 2020 ft 157 kts 132°
2026-05-04 19:33 18.53626 -69.70846 1896 ft 153 kts 150°
2026-05-04 19:33 18.52699 -69.70504 1721 ft 137 kts 164°
2026-05-04 19:34 18.51800 -69.70178 1562 ft 137 kts 158°
2026-05-04 19:34 18.50903 -69.69822 1402 ft 139 kts 163°
2026-05-04 19:34 18.50000 -69.69494 1216 ft 134 kts 162°
2026-05-04 19:34 18.49143 -69.69183 1054 ft 132 kts 161°
2026-05-04 19:35 18.48288 -69.68885 891 ft 128 kts 162°
2026-05-04 19:35 18.47456 -69.68558 739 ft 130 kts 160°
2026-05-04 19:35 18.46599 -69.68242 577 ft 127 kts 160°
2026-05-04 19:35 18.45761 -69.67893 441 ft 134 kts 158°
2026-05-04 19:36 18.44883 -69.67574 317 ft 126 kts 162°
2026-05-04 19:36 18.44090 -69.67298 93 ft 114 kts 161°
2026-05-04 19:36 18.43459 -69.67070 86 ft 78 kts 161°
2026-05-04 19:36 18.43049 -69.66918 88 ft 23 kts 163°
2026-05-04 19:37 18.42950 -69.66960 82 ft 18 kts 243°
2026-05-04 19:37 18.42944 -69.67106 69 ft 22 kts 276°
2026-05-04 19:37 18.42957 -69.67238 63 ft 6 kts 276°
2026-05-04 19:37 18.42962 -69.67288 70 ft 0 kts 275°
2026-05-04 19:41 18.42962 -69.67291 72 ft 3 kts 275°
2026-05-04 19:42 18.42968 -69.67342 70 ft 9 kts 282°
2026-05-04 19:42 18.43000 -69.67402 63 ft 11 kts 313°
2026-05-04 19:42 18.43067 -69.67445 67 ft 12 kts 343°
2026-05-04 19:42 18.43157 -69.67474 64 ft 15 kts 343°
2026-05-04 19:43 18.43258 -69.67514 67 ft 16 kts 339°
2026-05-04 19:43 18.43373 -69.67529 66 ft 18 kts 10°
2026-05-04 19:43 18.43473 -69.67553 68 ft 15 kts 320°
2026-05-04 19:43 18.43523 -69.67639 66 ft 11 kts 297°
2026-05-04 19:44 18.43531 -69.67655 71 ft 0 kts 297°